Weather History for Angeles / Pampanga, Philippines

Change the Weather History Date:

Friday, November 2, 2012

  Actual Average (RPLB) Record (RPLB)
Temperature  
Mean Temperature 78 °F -  
Max Temperature 87 °F 87 °F 91 °F (1997)
Min Temperature 69 °F 75 °F 74 °F (2012)
Cooling Degree Days 13    
Growing Degree Days 28 (Base 50)    
Moisture  
Dew Point 68 °F    
Average Humidity 72    
Maximum Humidity 88    
Minimum Humidity 52    
Precipitation  
Precipitation 0.00 in - - ()
Sea Level Pressure  
Sea Level Pressure 29.88 in    
Wind  
Wind Speed 5 mph ()    
Max Wind Speed 7 mph    
Max Gust Speed -    
Visibility 6.2 miles    
Events      
Averages and records for this station are not official NWS values.
T = Trace of Precipitation, MM = Missing Value Source: Averaged Metar Reports

Daily Weather History Graph

Daily Weather History Graph

Search for Another Location

Airport:

Trip Planner

Search our weather history database for the weather conditions in past years. The results will help you decide how hot, cold, wet, or windy it might be!

Date:

Astronomy

Nov. 02, 2012 Rise Set
Actual Time 5:54 AM PHT 5:28 PM PHT
Civil Twilight 5:32 AM PHT 5:50 PM PHT
Nautical Twilight 5:06 AM PHT 6:15 PM PHT
Astronomical Twilight 4:41 AM PHT 6:41 PM PHT
Moon 8:04 PM PHT (11/2) 8:28 AM PHT (11/2)
Length of Visible Light 12h 18m
Length of Day
11h 34m
Waning Gibbous, 90% of the Moon is Illuminated
Nov 2
Waning Gibbous
Nov 7
Last Quarter
Nov 14
New
Nov 20
First Quarter
Nov 28
Full

Hourly Weather History & Observations

Time (PHT) Temp. Heat Index Dew Point Humidity Pressure Visibility Wind Dir Wind Speed Gust Speed Precip Events Conditions
12:00 AM 75.2 °F - 68.0 °F 78% 29.92 in 6.2 mi SSW 6.9 mph - N/A   Mostly Cloudy
1:00 AM 73.4 °F - 68.0 °F 83% 29.89 in 6.2 mi West 4.6 mph - N/A   Mostly Cloudy
3:00 AM 71.6 °F - 68.0 °F 88% 29.86 in 6.2 mi West 4.6 mph - N/A   Mostly Cloudy
4:00 AM 69.8 °F - 66.2 °F 88% 29.86 in 6.2 mi West 6.9 mph - N/A   Scattered Clouds
5:00 AM 69.8 °F - 66.2 °F 88% 29.86 in 6.2 mi West 5.8 mph - N/A   Scattered Clouds
6:00 AM 69.8 °F - 66.2 °F 88% 29.89 in 6.2 mi West 6.9 mph - N/A   Mostly Cloudy
7:00 AM 73.4 °F - 68.0 °F 83% 29.89 in 6.2 mi West 6.9 mph - N/A   Mostly Cloudy
8:00 AM 78.8 °F - 68.0 °F 69% 29.92 in 6.2 mi NW 4.6 mph - N/A   Mostly Cloudy
9:00 AM 78.8 °F - 68.0 °F 69% 29.92 in 6.2 mi ENE 3.5 mph - N/A   Mostly Cloudy
10:00 AM 84.2 °F 87.3 °F 68.0 °F 58% 29.92 in 6.2 mi East 4.6 mph - N/A   Mostly Cloudy
11:00 AM 86.0 °F 90.4 °F 69.8 °F 58% 29.89 in - North - - N/A   Mostly Cloudy
12:00 PM 86.0 °F 89.4 °F 68.0 °F 55% 29.86 in - North - - N/A   Mostly Cloudy
1:00 PM 87.8 °F 92.6 °F 69.8 °F 55% 29.83 in - North - - N/A   Scattered Clouds
2:00 PM 87.8 °F 91.4 °F 68.0 °F 52% 29.83 in - North - - N/A   Mostly Cloudy
3:00 PM 87.8 °F 91.4 °F 68.0 °F 52% 29.80 in - North - - N/A   Mostly Cloudy
4:00 PM 86.0 °F 89.4 °F 68.0 °F 55% 29.83 in 6.2 mi ENE 4.6 mph - N/A   Mostly Cloudy
5:00 PM 84.2 °F 87.3 °F 68.0 °F 58% 29.83 in - North - - N/A   Mostly Cloudy
6:00 PM 82.4 °F 86.3 °F 69.8 °F 66% 29.83 in - North - - N/A   Overcast
7:00 PM 80.6 °F 83.9 °F 69.8 °F 70% 29.86 in - North - - N/A   Overcast
8:00 PM 77.0 °F - 69.8 °F 78% 29.92 in - North - - N/A   Overcast
9:00 PM 75.2 °F - 69.8 °F 83% 29.89 in 6.2 mi NW 5.8 mph - N/A   Overcast
10:00 PM 73.4 °F - 69.8 °F 88% 29.92 in 6.2 mi West 5.8 mph - N/A   Mostly Cloudy
11:00 PM 73.4 °F - 69.8 °F 88% 29.92 in 6.2 mi West 5.8 mph - N/A   Mostly Cloudy